Location: Bletchingley
(51.2333°N, 0.1000°W)
Time: 13:51:11
(UTC+00:00)

Meteor 1-12 Rocket - Pass Details

Date: 18 September 2020
Orbit: 854 x 927 km, 81.2° (Epoch: 25 October)

Event Time Altitude Azimuth Distance (km) Brightness Sun altitude
Rises 19:50:51 0° 193° (SSW) 3,537 7.3 -16.6°
Reaches altitude 10° 19:53:20 10° 194° (SSW) 2,590 6.6 -16.9°
Maximum altitude 19:59:15 82° 282° (WNW) 913 4.4 -17.8°
Drops below altitude 10° 20:05:06 10° 11° (NNE) 2,559 6.9 -18.6°
Sets 20:07:33 0° 13° (NNE) 3,491 7.6 -18.9°
